Simultaneous Nadir Overpasses (SNOs) Predictions

Prediction of SNOs between AQUA and NOAA-19 Satellite Orbit:

Table of predicted SNOs for the next 14.0 days since TLE Epoch: 3/2/2013
Index Date (AQUA) Time (AQUA) Lat,Lon (AQUA) SZA (AQUA ) Date (NOAA-19) Time (NOAA-19) Lat,Lon (NOAA-19) SZA (NOAA-19 ) Distance(km) Time Diff (sec)
1 03/03/2013 08:48:35 -49.81,-118.02 122.83 03/03/2013 08:47:31 -49.76,-118.46 122.97 32.08 64
2 03/03/2013 09:59:45 50.04,-116.13 129.69 03/03/2013 10:00:53 49.94,-115.53 129.38 44.08 68
3 03/05/2013 13:32:48 -49.44, 171.06 123.98 03/05/2013 13:31:50 -49.36, 170.63 124.16 32.79 58
4 03/05/2013 14:43:07 53.41, 174.33 125.80 03/05/2013 14:44:20 53.29, 175.00 125.50 46.96 73
5 03/07/2013 18:17:00 -49.04, 100.15 125.18 03/07/2013 18:16:09 -48.97, 99.70 125.34 33.75 51
6 03/07/2013 19:05:40 46.11, -91.08 52.15 03/07/2013 19:06:18 46.00, -91.81 51.94 57.72 38
7 03/09/2013 23:01:12 -48.64, 29.24 126.36 03/09/2013 23:00:28 -48.58, 28.78 126.52 34.82 44
8 03/09/2013 23:49:58 46.07,-162.13 51.30 03/09/2013 23:50:42 45.92,-162.87 51.05 59.19 44
9 03/12/2013 03:45:23 -48.20, -41.66 127.58 03/12/2013 03:44:46 -48.15, -42.13 127.75 35.85 37
10 03/12/2013 04:34:17 46.11, 126.78 50.52 03/12/2013 04:35:08 45.96, 126.02 50.27 60.83 51
11 03/14/2013 08:29:34 -47.78,-112.56 128.79 03/14/2013 08:29:04 -47.71,-113.04 128.96 36.89 30




NCC Satellite Simultaneous Nadir Overpasses (SNOs) Prediction Service
